Stündliche Wetter Otrada

Heute, 14 April, Mittwoch

Zeit Temperatur Niederschläge Wind Luftdruck Luftfeuchtigkeit
00:00 +8°C° 0 mm 2 m/S 759 mmHg 90%
01:00 +7°C° 0 mm 2 m/S 759 mmHg 90%
02:00 +7°C° 0 mm 2 m/S 759 mmHg 89%
03:00 +6°C° 0 mm 2 m/S 759 mmHg 89%
04:00 +5°C° 0 mm 2 m/S 760 mmHg 98%
05:00 +5°C° 0 mm 2 m/S 759 mmHg 97%
06:00 +5°C° 0 mm 2 m/S 759 mmHg 96%
07:00 +6°C° 0 mm 2 m/S 759 mmHg 95%
08:00 +7°C° 0 mm 2 m/S 759 mmHg 89%
09:00 +8°C° 0 mm 2 m/S 759 mmHg 84%
10:00 +9°C° 0 mm 2 m/S 758 mmHg 78%
11:00 +12°C° 0 mm 2 m/S 758 mmHg 70%
12:00 +12°C° 0 mm 3 m/S 758 mmHg 62%
13:00 +14°C° 0 mm 3 m/S 757 mmHg 54%
14:00 +14°C° 0 mm 3 m/S 757 mmHg 54%
15:00 +16°C° 0 mm 3 m/S 756 mmHg 54%
16:00 +16°C° 0 mm 3 m/S 756 mmHg 54%
17:00 +14°C° 0 mm 3 m/S 756 mmHg 60%
18:00 +13°C° 0 mm 3 m/S 755 mmHg 65%
19:00 +13°C° 0 mm 2 m/S 755 mmHg 70%
20:00 +12°C° 0 mm 2 m/S 755 mmHg 74%
21:00 +9°C° 0 mm 2 m/S 755 mmHg 78%
22:00 +8°C° 0 mm 2 m/S 755 mmHg 81%
23:00 +8°C° 0 mm 2 m/S 755 mmHg 81%

Morgen, 15 April, Donnerstag

Zeit Temperatur Niederschläge Wind Luftdruck Luftfeuchtigkeit
00:00 +7°C° 0 mm 2 m/S 754 mmHg 80%
01:00 +7°C° 0 mm 2 m/S 754 mmHg 80%
02:00 +7°C° 0 mm 2 m/S 754 mmHg 79%
03:00 +6°C° 0 mm 2 m/S 754 mmHg 78%
04:00 +6°C° 0 mm 2 m/S 754 mmHg 78%
05:00 +6°C° 0 mm 2 m/S 754 mmHg 76%
06:00 +7°C° 0 mm 2 m/S 753 mmHg 74%
07:00 +7°C° 0 mm 2 m/S 753 mmHg 72%
08:00 +9°C° 0 mm 2 m/S 753 mmHg 65%
09:00 +12°C° 0 mm 3 m/S 753 mmHg 58%
10:00 +14°C° 0 mm 3 m/S 752 mmHg 51%
11:00 +15°C° 0 mm 4 m/S 752 mmHg 47%
12:00 +18°C° 0 mm 4 m/S 752 mmHg 43%
13:00 +19°C° 0 mm 4 m/S 751 mmHg 39%
14:00 +19°C° 0 mm 4 m/S 751 mmHg 37%
15:00 +19°C° 0 mm 3 m/S 751 mmHg 36%
16:00 +20°C° 0 mm 3 m/S 750 mmHg 35%
17:00 +18°C° 0 mm 3 m/S 750 mmHg 40%
18:00 +17°C° 0 mm 2 m/S 750 mmHg 45%
19:00 +15°C° 0 mm 2 m/S 749 mmHg 51%
20:00 +14°C° 0 mm 2 m/S 749 mmHg 53%
21:00 +13°C° 0 mm 2 m/S 749 mmHg 55%
22:00 +12°C° 0 mm 2 m/S 749 mmHg 58%
23:00 +12°C° 0 mm 1 m/S 749 mmHg 59%

übermorgen, 16 April, Freitag

Zeit Temperatur Niederschläge Wind Luftdruck Luftfeuchtigkeit
00:00 +11°C° 0 mm 1 m/S 749 mmHg 60%
01:00 +11°C° 0 mm 1 m/S 749 mmHg 61%
02:00 +10°C° 0 mm 1 m/S 748 mmHg 62%
03:00 +10°C° 0 mm 1 m/S 748 mmHg 63%
04:00 +9°C° 0 mm 1 m/S 748 mmHg 64%
05:00 +9°C° 0 mm 0 m/S 748 mmHg 63%
06:00 +9°C° 0 mm 0 m/S 748 mmHg 63%
07:00 +10°C° 0 mm 0 m/S 748 mmHg 63%
08:00 +12°C° 0 mm 1 m/S 748 mmHg 58%
09:00 +14°C° 0 mm 1 m/S 748 mmHg 53%
10:00 +15°C° 0 mm 2 m/S 749 mmHg 48%
11:00 +16°C° 0 mm 2 m/S 748 mmHg 45%
12:00 +17°C° 0 mm 2 m/S 748 mmHg 43%
13:00 +18°C° 0 mm 3 m/S 748 mmHg 40%
14:00 +18°C° 0 mm 3 m/S 748 mmHg 42%
15:00 +18°C° 0 mm 4 m/S 748 mmHg 43%
16:00 +18°C° 0 mm 4 m/S 748 mmHg 44%
17:00 +15°C° 0 mm 4 m/S 748 mmHg 54%
18:00 +14°C° 0 mm 5 m/S 748 mmHg 65%
19:00 +12°C° 0 mm 5 m/S 749 mmHg 75%
20:00 +10°C° 0 mm 5 m/S 749 mmHg 79%
21:00 +10°C° 0 mm 4 m/S 749 mmHg 82%
22:00 +7°C° 0 mm 4 m/S 749 mmHg 86%
23:00 +7°C° 0 mm 4 m/S 750 mmHg 87%

17 April, Samstag

Zeit Temperatur Niederschläge Wind Luftdruck Luftfeuchtigkeit
00:00 +7°C° 0 mm 3 m/S 750 mmHg 88%
01:00 +5°C° 0 mm 3 m/S 750 mmHg 89%
02:00 +4°C° 0 mm 3 m/S 750 mmHg 90%
03:00 +4°C° 0 mm 3 m/S 750 mmHg 91%
04:00 +3°C° 0 mm 3 m/S 750 mmHg 92%
05:00 +3°C° 0 mm 3 m/S 750 mmHg 90%
06:00 +3°C° 0 mm 4 m/S 750 mmHg 87%
07:00 +4°C° 0 mm 4 m/S 751 mmHg 85%
08:00 +5°C° 0 mm 5 m/S 751 mmHg 76%
09:00 +7°C° 0 mm 5 m/S 751 mmHg 67%
10:00 +8°C° 0 mm 6 m/S 751 mmHg 58%
11:00 +9°C° 0 mm 6 m/S 751 mmHg 52%
12:00 +10°C° 0 mm 6 m/S 751 mmHg 45%
13:00 +11°C° 0 mm 6 m/S 751 mmHg 38%
14:00 +11°C° 0 mm 6 m/S 751 mmHg 36%
15:00 +11°C° 0 mm 6 m/S 751 mmHg 35%
16:00 +11°C° 0 mm 6 m/S 751 mmHg 34%
17:00 +10°C° 0 mm 5 m/S 751 mmHg 38%
18:00 +9°C° 0 mm 5 m/S 751 mmHg 42%
19:00 +8°C° 0 mm 4 m/S 751 mmHg 47%
20:00 +7°C° 0 mm 4 m/S 751 mmHg 52%
21:00 +7°C° 0 mm 3 m/S 751 mmHg 58%
22:00 +5°C° 0 mm 3 m/S 752 mmHg 63%
23:00 +4°C° 0 mm 3 m/S 752 mmHg 66%

18 April, Sonntag

Zeit Temperatur Niederschläge Wind Luftdruck Luftfeuchtigkeit
00:00 +3°C° 0 mm 3 m/S 752 mmHg 68%
01:00 +4°C° 0 mm 2 m/S 752 mmHg 71%
02:00 +3°C° 0 mm 2 m/S 752 mmHg 73%
03:00 +3°C° 0 mm 2 m/S 752 mmHg 74%
04:00 +2°C° 0 mm 2 m/S 752 mmHg 76%
05:00 +2°C° 0 mm 3 m/S 752 mmHg 75%
06:00 +2°C° 0 mm 3 m/S 752 mmHg 75%
07:00 +2°C° 0 mm 3 m/S 752 mmHg 75%
08:00 +4°C° 0 mm 4 m/S 752 mmHg 67%
09:00 +5°C° 0 mm 4 m/S 752 mmHg 59%
10:00 +6°C° 0 mm 5 m/S 752 mmHg 52%
11:00 +7°C° 0 mm 5 m/S 752 mmHg 49%
12:00 +8°C° 0 mm 6 m/S 752 mmHg 46%
13:00 +9°C° 0 mm 6 m/S 752 mmHg 43%
14:00 +9°C° 0 mm 6 m/S 752 mmHg 42%
15:00 +9°C° 0 mm 7 m/S 752 mmHg 42%
16:00 +9°C° 0 mm 7 m/S 752 mmHg 41%
17:00 +8°C° 0 mm 7 m/S 753 mmHg 42%
18:00 +5°C° 0 mm 7 m/S 753 mmHg 43%
19:00 +4°C° 0 mm 7 m/S 754 mmHg 45%
20:00 +3°C° 0 mm 7 m/S 754 mmHg 44%
21:00 +2°C° 0 mm 6 m/S 754 mmHg 44%
22:00 +1°C° 0 mm 5 m/S 755 mmHg 43%
23:00 0°C° 0 mm 5 m/S 755 mmHg 47%

19 April, Montag

Zeit Temperatur Niederschläge Wind Luftdruck Luftfeuchtigkeit
00:00 -1°C° 0 mm 5 m/S 755 mmHg 52%
01:00 -1°C° 0 mm 5 m/S 756 mmHg 56%
02:00 -2°C° 0 mm 5 m/S 756 mmHg 59%
03:00 -2°C° 0 mm 4 m/S 757 mmHg 63%
04:00 -3°C° 0 mm 4 m/S 757 mmHg 66%
05:00 -3°C° 0 mm 4 m/S 758 mmHg 60%
06:00 -2°C° 0 mm 5 m/S 758 mmHg 55%
07:00 -2°C° 0 mm 5 m/S 759 mmHg 49%
08:00 -1°C° 0 mm 5 m/S 759 mmHg 44%
09:00 0°C° 0 mm 5 m/S 759 mmHg 38%
10:00 +1°C° 0 mm 5 m/S 760 mmHg 33%
11:00 +1°C° 0 mm 5 m/S 760 mmHg 32%
12:00 +2°C° 0 mm 5 m/S 760 mmHg 30%
13:00 +3°C° 0 mm 5 m/S 760 mmHg 29%
14:00 +3°C° 0 mm 5 m/S 760 mmHg 29%
15:00 +4°C° 0 mm 4 m/S 760 mmHg 28%
16:00 +5°C° 0 mm 4 m/S 760 mmHg 27%
17:00 +4°C° 0 mm 4 m/S 760 mmHg 30%
18:00 +3°C° 0 mm 4 m/S 760 mmHg 33%
19:00 +3°C° 0 mm 4 m/S 760 mmHg 37%
20:00 +1°C° 0 mm 4 m/S 760 mmHg 40%
21:00 +1°C° 0 mm 3 m/S 760 mmHg 43%
22:00 0°C° 0 mm 3 m/S 761 mmHg 47%
23:00 -1°C° 0 mm 2 m/S 761 mmHg 48%
Mehr zeigen

Wir brauchen deine Erlaubnis

Meteoprog und unser Service Anbieter werden persönliche Daten aufbewahren, so wie Cookies, Geräte Bezeichnung oder ähnliche Technologien von deinem Gerät und Prozess, so wie Persönliche Daten Inhalte und Werbungen, genauso wie social Media und den Verkehr zu analysieren.

  • Aufbewahrung und/oder Zugang zu deiner Geräte Informationen.

    Cookies, Geräte Bezeichnung oder andere Informationen, können aufbewahrt oder Zugang zu deinem Gerät erhalten, für den Grund, der oben angegeben wird.

  • Personalisierte Werbung und Inhalte, Messungen, Einblick in das Publikum und Produkt Entwicklung.

    Werbungen und Inhalte können personalisiert werden, basierend auf ein Profil. Mehr Daten können besser personalisierte Werbungen und Inhalte hinzufügen. Werbung und Inhalte können gezeigt und gemessen werden. Einblicke über das Publikum, welche die Werbung gesehen haben und den Inhalt, können abgeleitet werden. So wie Daten können genutzt werden, um es zu verbessern oder die Benutzer Erfahrung zu verbessern das System und die Software.

Wenn du “Ich stimme zu” klickst, erlaubst du uns, die Cookies zu benutzen die Geräte Bezeichnung, den Web oder ähnliche Technologien zu benutzen. Deine Settings, können in deinem Gerät bei deinem Browser geändert werden.

Für den bestimmten Zweck, berechtigten Interessen beruhen darauf, mehr als auf den Inhalt. Du kannst mehr darüber in unseren Privaten und Cookie Politik lesen.